ROMMA est une association bénévole à but non lucratif. Votre soutien est indispensable : ADHERER à ROMMA ou FAIRE un DON

Saint-Martin-d'Hères - (38, Isère)

Vallée du Grésivaudan (220 m)   Longitude: 05° 45' 05" E   Latitude: 45° 10' 02" N Station partenaire n°4
 

Détail journalier du     <<     >>

Température Precipitation Humidité Pression Vent Dir Rafale Dir. rafale Ensol.
Heure (°C) (mm) (%) (hPa) (km/h) (km/h) (min)
01:00 14.4081101500---0
02:00 15.1079101502SSE0
03:00 15.4079101606SSE0
04:00 14.4082101605SE0
05:00 13.9083101600---0
06:00 12.7087101700---0
07:00 12.6088101700---0
08:00 12.2089101700---0
09:00 12.8089101700---0
10:00 13.8086101800---0
11:00 16.4075101800---0
12:00 19.4063101800---30
13:00 21.2054101806SSO50
14:00 21.705110172S11SSO20
15:00 22.404710172S16SSE10
16:00 23.204410171NO11NO20
17:00 22.70481017010SO0
18:00 20.4059101700---0
19:00 19.2066101702NO0
20:00 18.1070101700---0
21:00 18.2070101808SSE0
22:00 17.8072101802SSE0
23:00 16.90761018015SSE0
minuit 16.1080101800---0

Graphique du 16-10-2018

 

Serveur OMMA